Location: Fazenda Monte Alegre
(4.8500°S, 38.0333°W)
Time: 14:46:42
(UTC+00:00)

Cosmos 1842 - Pass Details

Date: 24 September 2020
Orbit: 521 x 537 km, 82.5° (Epoch: 19 October)

Event Time Altitude Azimuth Distance (km) Brightness Sun altitude
Rises 21:20:44 0° 346° (NNW) 2,643 7.0 -14.1°
Reaches altitude 10° 21:22:54 10° 341° (NNW) 1,761 6.1 -14.6°
Maximum altitude 21:26:38 48° 266° (W) 696 4.3 -15.6°
Drops below altitude 10° 21:30:25 10° 191° (S) 1,783 6.1 -16.5°
Sets 21:32:38 0° 185° (S) 2,679 6.9 -17.0°
